User: anonymous   Login
Location: ??????
(42.0089°N, 44.3281°E)
Time: 19:27:09
(UTC+00:00)
Language:

OAO 3 Rocket - Orbit

View from above orbital plane
View from above orbital plane
View from above satellite
View from above satellite

Ground track
Ground track

The orbit data is extracted from the following two-line orbital elements,

1  6155U 72065B   22017.39137844  .00000415  00000-0  68363-4 0  9998
2  6155  35.0038 120.8693 0038323 309.7466  49.9859 14.71787380638862
Epoch (UTC): 17 January 2022 09:23:35
Eccentricity: 0.0038323
inclination: 35.0038°
perigee height: 628 km
apogee height: 682 km
right ascension of ascending node: 120.8693°
argument of perigee: 309.7466°
revolutions per day: 14.71787380
mean anomaly at epoch: 49.9859°
orbit number at epoch: 63886

The dashed part of the orbit path shows where the satellite is in the earth's shadow,  

DLR